CW6538 Cattolica IT current weather conditions

sailwx.info

Wind from 043 at 6 knots gusting 12

Air temperature 17.8° C
Dewpoint 9.1° C

Last reported at 2017-Apr-24 09:09 UTC.
Time now 2017-Apr-24 09:32 UTC

Location: N 43°58' E 012°44'.
View on Google Maps.

See reports from other nearby stations

  
Tides and Currents Weather Stations Pressure Air Temp Water Temp Dewpoint Dewpoint Depression Visibility Wind Speed Wind Dir Waves Ship Positions
date/time (UTC)wind fromknots sea level pressurealtimeterstation pressurevisibilityair tempwater tempwave heightnotes
2017-Apr-24 09:09 043 6 gusting 12 17.8
2017-Apr-24 09:04 051 8 gusting 12 17.8
2017-Apr-24 08:59 059 9 gusting 12 17.8
2017-Apr-24 08:54 034 6 gusting 11 17.8
2017-Apr-24 08:49 020 7 gusting 11 17.8
2017-Apr-24 08:44 024 6 gusting 11 17.8
2017-Apr-24 08:39 078 6 gusting 10 17.8
2017-Apr-24 08:29 015 4 gusting 9 17.8
2017-Apr-24 08:24 035 6 gusting 9 17.8
2017-Apr-24 08:19 017 4 gusting 7 17.8
2017-Apr-24 08:09 051 6 gusting 8 17.2
2017-Apr-24 08:04 028 5 gusting 7 17.2
2017-Apr-24 07:59 044 3 gusting 6 17.2
2017-Apr-24 07:54 032 4 gusting 6 17.2
2017-Apr-24 07:49 005 6 gusting 6 17.2
2017-Apr-24 07:44 005 4 gusting 6 16.7
2017-Apr-24 07:29 033 3 gusting 6 16.1
2017-Apr-24 07:24 011 5 gusting 6 16.1
2017-Apr-24 07:19 360 4 gusting 5 15.6
2017-Apr-24 07:14 355 2 gusting 4 15.6
2017-Apr-24 07:09 355 1 gusting 5 15.6
2017-Apr-24 07:04 355 3 gusting 5 15.0
2017-Apr-24 06:59 252 15.0
2017-Apr-24 06:54 269 14.4
2017-Apr-24 06:49 269 14.4
2017-Apr-24 06:44 196 1 gusting 4 13.9
2017-Apr-24 06:39 170 13.9
2017-Apr-24 06:34 170 13.9
2017-Apr-24 06:29 170 13.3
2017-Apr-24 06:19 153 13.3
2017-Apr-24 06:14 153 12.8
2017-Apr-24 06:09 153 1 gusting 3 12.8
2017-Apr-24 06:04 229 12.2
2017-Apr-24 05:59 229 12.2
2017-Apr-24 05:54 229 12.2
2017-Apr-24 05:49 229 11.7
2017-Apr-24 05:44 229 11.7
2017-Apr-24 05:39 229 11.7
2017-Apr-24 05:34 229 11.1
2017-Apr-24 05:29 229 11.1
2017-Apr-24 05:24 229 11.1
2017-Apr-24 05:19 229 11.1
2017-Apr-24 05:14 229 11.1
2017-Apr-24 05:09 229 0 gusting 2 11.1
2017-Apr-24 05:04 229 11.1
2017-Apr-24 04:59 229 11.1
2017-Apr-24 04:54 229 11.1
2017-Apr-24 04:49 229 11.1
2017-Apr-24 04:44 229 11.1
2017-Apr-24 04:39 229 11.7
2017-Apr-24 04:34 229 11.7
2017-Apr-24 04:29 229 11.7
2017-Apr-24 04:24 229 11.7
2017-Apr-24 04:19 229 11.7
2017-Apr-24 04:14 229 11.7
2017-Apr-24 04:09 229 12.2
2017-Apr-24 04:04 229 12.2
2017-Apr-24 03:59 229 12.2
2017-Apr-24 03:54 229 12.2
2017-Apr-24 03:49 229 12.2
2017-Apr-24 03:39 229 12.2
2017-Apr-24 03:34 229 12.2
2017-Apr-24 03:29 229 12.8
2017-Apr-24 03:24 229 0 gusting 2 12.8
2017-Apr-24 03:19 229 0 gusting 1 12.8
2017-Apr-24 03:14 229 12.8
2017-Apr-24 03:09 229 1 gusting 5 12.8
2017-Apr-24 03:04 229 2 gusting 8 12.8
2017-Apr-24 02:59 200 4 gusting 8 12.8
2017-Apr-24 02:54 221 4 gusting 8 12.8
2017-Apr-24 02:49 197 5 gusting 8 12.8
2017-Apr-24 02:44 202 4 gusting 7 12.8
2017-Apr-24 02:39 204 4 gusting 7 12.8
2017-Apr-24 02:34 203 5 gusting 7 12.8
2017-Apr-24 02:29 190 4 gusting 7 12.8
2017-Apr-24 02:24 208 4 gusting 7 12.8
2017-Apr-24 02:19 197 4 gusting 8 12.8
2017-Apr-24 02:14 186 3 gusting 8 12.8
2017-Apr-24 02:09 203 4 gusting 7 12.8
2017-Apr-24 02:04 186 4 gusting 7 12.8
2017-Apr-24 01:59 204 6 gusting 7 12.8
2017-Apr-24 01:54 209 6 gusting 7 12.8
2017-Apr-24 01:49 199 4 gusting 8 12.8
2017-Apr-24 01:44 206 6 gusting 8 12.2
2017-Apr-24 01:39 209 5 gusting 8 12.2
2017-Apr-24 01:34 184 5 gusting 7 12.2
2017-Apr-24 01:29 204 4 gusting 9 12.2
2017-Apr-24 01:24 244 5 gusting 9 11.7
2017-Apr-24 01:19 205 4 gusting 7 11.7
2017-Apr-24 01:14 187 3 gusting 6 11.1
2017-Apr-24 01:09 182 4 gusting 6 11.1
2017-Apr-24 01:04 182 3 gusting 6 11.1
2017-Apr-24 00:59 178 4 gusting 8 10.6
2017-Apr-24 00:54 178 3 gusting 8 10.6
2017-Apr-24 00:49 159 2 gusting 5 10.6
2017-Apr-24 00:44 159 2 gusting 5 10.6
2017-Apr-24 00:39 159 1 gusting 4 10.6
2017-Apr-24 00:34 159 1 gusting 3 10.6
2017-Apr-24 00:29 159 1 gusting 4 10.6
2017-Apr-24 00:24 159 0 gusting 4 10.6
2017-Apr-24 00:19 159 10.6
2017-Apr-24 00:14 159 10.6
2017-Apr-24 00:09 159 0 gusting 2 10.6
2017-Apr-24 00:04 159 1 10.6
2017-Apr-23 23:59 159 0 gusting 4 10.6
2017-Apr-23 23:54 159 10.6
2017-Apr-23 23:49 159 0 gusting 3 10.6
2017-Apr-23 23:44 159 2 gusting 3 11.1
2017-Apr-23 23:39 159 1 gusting 2 11.1
2017-Apr-23 23:34 159 1 gusting 2 11.1
2017-Apr-23 23:29 159 0 gusting 3 11.1
2017-Apr-23 23:19 159 1 gusting 4 11.1
2017-Apr-23 23:14 159 2 gusting 4 11.1
2017-Apr-23 23:09 159 0 gusting 4 11.7
2017-Apr-23 23:04 159 1 gusting 4 11.7
2017-Apr-23 22:59 159 2 gusting 3 11.7
2017-Apr-23 22:54 159 11.7
2017-Apr-23 22:49 159 1 gusting 4 11.7
2017-Apr-23 22:44 159 1 gusting 4 11.7
2017-Apr-23 22:29 159 0 gusting 4 12.2
2017-Apr-23 22:24 159 1 gusting 4 12.2
2017-Apr-23 22:19 159 0 gusting 4 12.2
2017-Apr-23 22:14 159 1 gusting 4 12.2
2017-Apr-23 22:09 159 2 gusting 6 12.2
2017-Apr-23 22:04 169 3 gusting 6 12.2
2017-Apr-23 21:59 157 2 gusting 5 12.2
2017-Apr-23 21:54 159 2 gusting 6 12.8
2017-Apr-23 21:49 157 2 gusting 6 12.8
2017-Apr-23 21:44 161 4 gusting 6 12.8
2017-Apr-23 21:39 165 4 gusting 6 12.8
2017-Apr-23 21:34 164 3 gusting 6 12.8
2017-Apr-23 21:29 171 4 gusting 5 12.8
2017-Apr-23 21:24 170 4 gusting 5 12.8
2017-Apr-23 21:19 163 3 gusting 5 12.8
2017-Apr-23 21:14 168 4 gusting 5 13.3
2017-Apr-23 21:09 175 4 gusting 6 13.3
2017-Apr-23 21:04 173 4 gusting 6 13.3
2017-Apr-23 20:59 160 2 gusting 6 13.3
2017-Apr-23 20:49 170 4 gusting 6 13.3
2017-Apr-23 20:44 168 4 gusting 6 13.3
2017-Apr-23 20:39 174 3 gusting 7 13.3
2017-Apr-23 20:34 163 5 gusting 7 13.3
2017-Apr-23 20:29 180 4 gusting 6 13.3
2017-Apr-23 20:24 159 4 gusting 7 13.3
2017-Apr-23 20:19 173 4 gusting 7 13.3
2017-Apr-23 20:14 162 4 gusting 6 13.3
2017-Apr-23 20:09 178 4 gusting 6 13.3
2017-Apr-23 20:04 171 3 gusting 6 13.9
2017-Apr-23 19:59 169 4 gusting 6 13.9
2017-Apr-23 19:54 161 3 gusting 5 13.9
2017-Apr-23 19:49 175 3 gusting 6 13.9
2017-Apr-23 19:44 152 3 gusting 6 13.9
2017-Apr-23 19:39 148 3 gusting 6 13.9
2017-Apr-23 19:34 158 2 gusting 6 13.9
2017-Apr-23 19:29 149 2 gusting 6 13.9
2017-Apr-23 19:24 162 2 gusting 6 13.9
2017-Apr-23 19:19 136 284 gusting 284 14.4
2017-Apr-23 19:14 161 5 gusting 6 14.4
2017-Apr-23 19:09 127 4 gusting 7 14.4
2017-Apr-23 19:04 132 4 gusting 7 14.4
2017-Apr-23 18:49 122 4 gusting 6 14.4
2017-Apr-23 18:44 170 3 14.4
2017-Apr-23 18:34 175 2 gusting 4 15.0
2017-Apr-23 18:29 183 1 gusting 4 15.0
2017-Apr-23 18:19 157 1 gusting 7 15.0
2017-Apr-23 18:14 138 3 gusting 7 15.0
2017-Apr-23 18:09 131 5 gusting 7 15.0
2017-Apr-23 18:04 128 284 gusting 284 15.6
2017-Apr-23 17:59 109 3 gusting 6 15.6
2017-Apr-23 17:54 114 0 gusting 7 15.6
2017-Apr-23 17:49 132 4 gusting 7 15.6
2017-Apr-23 17:44 114 2 gusting 9 15.6
2017-Apr-23 17:40 124 3 gusting 9 15.6
2017-Apr-23 17:29 094 6 gusting 8 15.6
2017-Apr-23 17:19 148 6 gusting 8 16.1
2017-Apr-23 17:14 122 284 gusting 284 16.1
2017-Apr-23 17:09 162 6 16.1
2017-Apr-23 17:04 155 6 gusting 10 16.1
2017-Apr-23 16:54 111 6 gusting 8 16.7
2017-Apr-23 16:49 092 5 gusting 8 16.7
2017-Apr-23 16:44 153 5 gusting 8 16.7
2017-Apr-23 16:39 104 5 gusting 7 16.7
2017-Apr-23 16:34 118 4 gusting 7 16.7
2017-Apr-23 16:29 122 3 gusting 8 16.7
2017-Apr-23 16:24 094 5 gusting 8 16.7
2017-Apr-23 16:19 105 6 gusting 8 17.2
2017-Apr-23 16:14 091 6 gusting 8 17.2
2017-Apr-23 16:09 071 4 gusting 6 17.2
2017-Apr-23 16:04 054 3 gusting 6 17.2
2017-Apr-23 15:59 062 3 gusting 6 17.2
2017-Apr-23 15:49 062 2 gusting 7 17.2
2017-Apr-23 15:44 064 3 gusting 6 17.2
2017-Apr-23 15:39 082 2 gusting 7 17.2
2017-Apr-23 15:34 104 3 gusting 7 16.7
2017-Apr-23 15:29 079 3 gusting 7 16.7
2017-Apr-23 15:24 088 4 gusting 7 16.7
2017-Apr-23 15:19 074 4 gusting 8 17.2
2017-Apr-23 15:14 105 5 gusting 12 17.2
2017-Apr-23 15:09 047 6 gusting 12 17.2
2017-Apr-23 15:04 074 6 gusting 11 17.8
2017-Apr-23 14:59 083 6 gusting 11 17.8
2017-Apr-23 14:54 015 6 gusting 9 17.2
2017-Apr-23 14:49 058 4 gusting 8 17.2
2017-Apr-23 14:39 082 5 gusting 10 16.7
2017-Apr-23 14:34 078 6 gusting 10 16.7
2017-Apr-23 14:29 050 7 gusting 10 16.7
2017-Apr-23 14:24 053 6 gusting 12 16.7
2017-Apr-23 14:19 047 7 gusting 12 17.2
2017-Apr-23 14:14 044 6 gusting 10 17.2
2017-Apr-23 14:09 053 6 gusting 12 17.2
2017-Apr-23 13:59 056 7 gusting 9 17.2
2017-Apr-23 13:54 040 6 gusting 9 16.7
2017-Apr-23 13:49 024 6 gusting 7 16.1
2017-Apr-23 13:44 084 4 gusting 10 16.1
2017-Apr-23 13:39 050 284 gusting 284 16.1
2017-Apr-23 13:34 082 6 gusting 10 16.7
2017-Apr-23 13:29 076 6 gusting 10 16.7
2017-Apr-23 13:24 053 6 gusting 10 16.7
2017-Apr-23 13:19 050 5 gusting 9 16.7
2017-Apr-23 13:14 072 5 gusting 10 16.7
2017-Apr-23 13:09 074 6 gusting 11 16.7
2017-Apr-23 13:04 061 5 gusting 11 16.7
2017-Apr-23 12:59 042 6 gusting 11 16.1
2017-Apr-23 12:54 036 6 gusting 10 16.7
2017-Apr-23 12:44 107 5 gusting 10 16.1
2017-Apr-23 12:39 068 5 gusting 10 16.1
2017-Apr-23 12:34 051 6 gusting 9 16.7
2017-Apr-23 12:29 100 6 gusting 9 16.7
2017-Apr-23 12:24 060 6 gusting 11 16.7
2017-Apr-23 12:19 040 5 gusting 11 16.7
2017-Apr-23 12:09 061 6 gusting 11 16.7
2017-Apr-23 12:04 053 6 gusting 11 17.2
2017-Apr-23 11:59 063 6 gusting 11 16.7
2017-Apr-23 11:54 068 7 gusting 11 17.2
2017-Apr-23 11:49 083 6 gusting 11 17.2
2017-Apr-23 11:44 030 6 gusting 11 17.2
2017-Apr-23 11:39 046 6 gusting 13 17.2
2017-Apr-23 11:34 015 7 gusting 13 17.2
2017-Apr-23 11:29 046 7 gusting 11 17.2
2017-Apr-23 11:19 040 6 gusting 11 17.8
2017-Apr-23 11:14 351 7 gusting 10 17.8
2017-Apr-23 11:09 084 6 gusting 10 17.8
2017-Apr-23 11:04 040 5 gusting 10 17.8
2017-Apr-23 10:59 030 7 gusting 10 17.8
2017-Apr-23 10:54 051 7 gusting 9 17.8
2017-Apr-23 10:49 037 7 gusting 9 17.8
2017-Apr-23 10:44 032 6 gusting 9 18.3
2017-Apr-23 10:39 044 284 gusting 284 18.3
2017-Apr-23 10:34 034 4 gusting 7 18.3
2017-Apr-23 10:29 020 5 gusting 9 18.3
2017-Apr-23 10:24 042 5 18.3
2017-Apr-23 10:19 009 6 gusting 8 18.9
2017-Apr-23 10:14 032 4 gusting 7 18.9
2017-Apr-23 10:09 039 4 gusting 7 18.9
2017-Apr-23 10:04 042 6 gusting 8 18.9
2017-Apr-23 09:59 036 3 gusting 8 18.9
2017-Apr-23 09:54 048 5 gusting 7 18.9
2017-Apr-23 09:49 044 4 gusting 7 18.9
2017-Apr-23 09:44 055 5 gusting 6 18.9
2017-Apr-23 09:39 014 4 gusting 8 18.9
2017-Apr-23 09:34 036 6 gusting 8 18.9
2017-Apr-23 09:29 014 5 gusting 9 18.9
2017-Apr-23 09:24 038 6 gusting 9 18.3
2017-Apr-23 09:19 047 5 18.3
2017-Apr-23 09:14 046 5 gusting 8 18.3
2017-Apr-23 09:09 053 6 gusting 9 18.3
2017-Apr-23 09:04 035 6 gusting 9 17.8
2017-Apr-23 08:59 041 5 gusting 9 17.8
2017-Apr-23 08:49 022 5 gusting 8 17.2
2017-Apr-23 08:44 012 5 gusting 8 17.2
2017-Apr-23 08:39 036 6 gusting 8 17.8
2017-Apr-23 08:34 030 4 gusting 7 17.2
2017-Apr-23 08:29 009 5 gusting 8 17.2
2017-Apr-23 08:24 011 6 gusting 8 17.2
2017-Apr-23 08:14 036 5 16.7
2017-Apr-23 08:09 360 5 gusting 7 16.7
2017-Apr-23 08:04 360 6 gusting 7 16.7
2017-Apr-23 07:59 011 4 gusting 7 16.1
2017-Apr-23 07:54 011 6 gusting 9 16.7
2017-Apr-23 07:49 009 6 gusting 8 16.7
2017-Apr-23 07:44 005 6 gusting 7 16.7
2017-Apr-23 07:34 046 5 gusting 6 16.1
2017-Apr-23 07:29 014 3 gusting 6 16.1
2017-Apr-23 07:24 336 3 gusting 5 16.1
2017-Apr-23 07:19 288 15.6
2017-Apr-23 07:14 224 4 gusting 6 15.6
2017-Apr-23 07:09 259 3 gusting 6 15.6
2017-Apr-23 07:04 257 284 gusting 284 15.6
2017-Apr-23 06:54 220 4 gusting 8 15.0
2017-Apr-23 06:44 215 5 gusting 6 14.4
2017-Apr-23 06:38 185 5 gusting 7 14.4
2017-Apr-23 06:34 215 5 gusting 9 14.4
2017-Apr-23 06:29 216 6 gusting 10 13.9
2017-Apr-23 06:24 206 6 gusting 10 13.9
2017-Apr-23 06:19 204 5 gusting 9 13.3
2017-Apr-23 06:14 191 5 gusting 9 13.3
2017-Apr-23 06:09 200 5 gusting 8 13.3
2017-Apr-23 06:04 198 4 gusting 8 12.8
2017-Apr-23 05:59 222 4 gusting 6 12.8
2017-Apr-23 05:54 176 5 gusting 8 12.8
2017-Apr-23 05:49 196 6 gusting 8 12.2
2017-Apr-23 05:44 192 3 gusting 6 12.2
2017-Apr-23 05:39 192 4 gusting 6 12.2
2017-Apr-23 05:29 189 4 gusting 6 11.7
2017-Apr-23 05:24 190 3 gusting 6 11.7
2017-Apr-23 05:19 190 3 gusting 6 11.7
2017-Apr-23 05:14 190 3 gusting 5 11.1
2017-Apr-23 05:09 190 3 gusting 6 11.1
2017-Apr-23 05:04 190 3 gusting 6 11.1
2017-Apr-23 04:59 190 2 gusting 5 11.1
2017-Apr-23 04:54 190 3 gusting 6 11.1
2017-Apr-23 04:49 191 4 gusting 6 11.1
2017-Apr-23 04:44 199 3 gusting 6 11.1
2017-Apr-23 04:39 199 3 gusting 5 11.1
2017-Apr-23 04:33 200 3 gusting 6 11.1
2017-Apr-23 04:29 200 4 gusting 6 11.1
2017-Apr-23 04:24 200 2 gusting 5 11.1
2017-Apr-23 04:19 199 3 gusting 6 11.1
2017-Apr-23 04:14 199 3 gusting 6 11.1
2017-Apr-23 04:09 199 4 gusting 6 11.1
2017-Apr-23 04:04 184 3 gusting 5 11.1
2017-Apr-23 03:59 184 2 gusting 5 11.1
2017-Apr-23 03:54 184 3 gusting 5 11.1
2017-Apr-23 03:49 185 3 gusting 5 11.7
2017-Apr-23 03:44 185 2 gusting 5 11.7
2017-Apr-23 03:34 183 3 gusting 5 11.7
2017-Apr-23 03:24 193 4 gusting 6 11.7
2017-Apr-23 03:19 186 4 gusting 6 11.7
2017-Apr-23 03:14 192 3 gusting 6 12.2
2017-Apr-23 03:09 198 4 gusting 6 12.2
2017-Apr-23 03:04 195 4 gusting 7 12.2
2017-Apr-23 02:59 205 5 gusting 7 12.2
2017-Apr-23 02:53 188 5 gusting 7 12.2
2017-Apr-23 02:49 215 5 gusting 8 12.2
2017-Apr-23 02:44 207 4 gusting 8 12.2
2017-Apr-23 02:39 211 3 gusting 6 12.2
2017-Apr-23 02:34 197 3 gusting 6 12.2
2017-Apr-23 02:29 215 3 gusting 6 12.2
2017-Apr-23 02:24 190 4 gusting 7 12.2
2017-Apr-23 02:19 221 3 gusting 6 12.2
2017-Apr-23 02:14 229 4 gusting 6 12.2
2017-Apr-23 02:09 216 3 gusting 6 12.2
2017-Apr-23 02:04 222 3 gusting 6 12.2
2017-Apr-23 01:59 205 4 gusting 6 12.2
2017-Apr-23 01:54 217 4 gusting 6 12.2
2017-Apr-23 01:49 213 5 gusting 6 12.2
2017-Apr-23 01:44 220 4 gusting 8 12.2
2017-Apr-23 01:39 198 5 gusting 8 12.2
2017-Apr-23 01:34 213 4 gusting 8 12.2
2017-Apr-23 01:29 215 4 gusting 8 12.2
2017-Apr-23 01:24 188 4 gusting 9 12.2
2017-Apr-23 01:19 202 4 gusting 9 12.2
2017-Apr-23 01:14 205 5 gusting 8 12.2
2017-Apr-23 01:09 202 4 gusting 8 12.2
2017-Apr-23 01:04 183 4 gusting 8 12.2
2017-Apr-23 00:59 200 5 gusting 7 12.2
2017-Apr-23 00:54 198 3 gusting 8 12.2
2017-Apr-23 00:49 180 5 gusting 8 12.8
2017-Apr-23 00:44 184 5 gusting 7 12.8
2017-Apr-23 00:39 187 4 gusting 11 12.8
2017-Apr-23 00:34 209 5 gusting 11 12.8
2017-Apr-23 00:29 218 6 gusting 10 12.8
2017-Apr-23 00:24 179 3 gusting 10 12.8
2017-Apr-23 00:18 213 6 gusting 10 12.8
2017-Apr-23 00:14 244 4 gusting 10 12.8
2017-Apr-23 00:04 251 5 gusting 8 12.8
2017-Apr-22 23:59 213 5 gusting 8 12.8
2017-Apr-22 23:54 211 4 gusting 8 12.8
2017-Apr-22 23:49 238 5 gusting 9 12.8
2017-Apr-22 23:44 198 6 gusting 9 12.8
2017-Apr-22 23:39 202 5 gusting 7 12.8
2017-Apr-22 23:34 188 4 gusting 7 12.8
2017-Apr-22 23:29 211 4 gusting 8 12.8
2017-Apr-22 23:19 178 5 gusting 10 12.8
2017-Apr-22 23:14 215 5 gusting 7 12.8
2017-Apr-22 23:09 192 5 12.8
2017-Apr-22 23:04 213 5 gusting 8 12.8
2017-Apr-22 22:59 202 4 gusting 7 12.8
2017-Apr-22 22:54 196 4 gusting 6 12.8
2017-Apr-22 22:49 194 5 gusting 7 12.8
2017-Apr-22 22:44 194 5 gusting 8 12.8
2017-Apr-22 22:39 193 5 gusting 8 12.8
2017-Apr-22 22:34 214 5 gusting 7 12.8
2017-Apr-22 22:29 193 4 gusting 7 12.8
2017-Apr-22 22:24 194 5 gusting 7 12.8
2017-Apr-22 22:19 198 5 gusting 7 12.8
2017-Apr-22 22:14 183 4 gusting 7 13.3
2017-Apr-22 22:09 177 5 gusting 7 13.3
2017-Apr-22 22:04 193 5 gusting 7 13.3
2017-Apr-22 21:59 202 4 gusting 7 13.3
2017-Apr-22 21:54 192 4 gusting 7 13.3
2017-Apr-22 21:49 198 6 gusting 9 13.3
2017-Apr-22 21:44 200 6 gusting 8 13.3
2017-Apr-22 21:39 194 4 gusting 7 13.3
2017-Apr-22 21:34 188 4 gusting 8 13.3
2017-Apr-22 21:24 182 5 gusting 7 13.3
2017-Apr-22 21:20 194 5 gusting 7 13.3
2017-Apr-22 21:14 180 4 gusting 7 13.9
2017-Apr-22 21:09 219 5 gusting 7 13.9
2017-Apr-22 21:04 196 4 gusting 7 13.9
2017-Apr-22 20:59 183 4 gusting 6 13.9
2017-Apr-22 20:54 194 4 gusting 7 13.9
2017-Apr-22 20:49 200 4 gusting 8 13.9
2017-Apr-22 20:44 188 5 gusting 8 13.9
2017-Apr-22 20:39 211 6 gusting 8 13.9
2017-Apr-22 20:34 190 5 gusting 8 13.9
2017-Apr-22 20:24 191 4 gusting 6 14.4
2017-Apr-22 20:19 206 4 gusting 7 14.4
2017-Apr-22 20:14 178 5 gusting 7 14.4
2017-Apr-22 20:09 199 4 14.4
2017-Apr-22 20:04 197 5 gusting 7 14.4
2017-Apr-22 19:59 196 4 gusting 7 14.4
2017-Apr-22 19:54 184 4 gusting 7 14.4
2017-Apr-22 19:49 184 3 gusting 7 14.4
2017-Apr-22 19:44 215 5 gusting 7 15.0
2017-Apr-22 19:39 174 6 gusting 9 15.0
2017-Apr-22 19:34 199 5 gusting 9 15.0
2017-Apr-22 19:29 191 5 gusting 6 15.0
2017-Apr-22 19:19 213 5 gusting 8 15.0
2017-Apr-22 19:14 209 4 gusting 8 15.0
2017-Apr-22 19:09 204 5 gusting 7 15.0
2017-Apr-22 19:04 205 5 gusting 7 15.6
2017-Apr-22 18:59 197 4 gusting 7 15.6
2017-Apr-22 18:54 204 5 gusting 6 15.6
2017-Apr-22 18:49 199 4 gusting 6 15.6
2017-Apr-22 18:44 168 5 gusting 6 15.6
2017-Apr-22 18:39 193 4 gusting 6 15.6
2017-Apr-22 18:34 190 4 gusting 6 15.6
2017-Apr-22 18:29 197 4 gusting 7 15.6
2017-Apr-22 18:24 196 5 gusting 7 15.6
2017-Apr-22 18:19 180 4 gusting 6 15.6
2017-Apr-22 18:14 174 3 gusting 5 15.6
2017-Apr-22 18:09 174 0 gusting 4 15.6
2017-Apr-22 18:04 174 2 gusting 6 16.1
2017-Apr-22 17:59 142 3 gusting 6 16.1
2017-Apr-22 17:54 149 3 gusting 6 16.1
2017-Apr-22 17:49 123 2 gusting 7 16.1
2017-Apr-22 17:44 130 4 gusting 8 16.1
2017-Apr-22 17:39 123 5 gusting 8 16.7
2017-Apr-22 17:34 132 4 gusting 6 16.7
2017-Apr-22 17:29 200 2 gusting 6 16.7
2017-Apr-22 17:24 128 3 gusting 6 16.7
2017-Apr-22 17:19 109 4 gusting 6 16.7
2017-Apr-22 17:14 115 3 gusting 6 16.7
2017-Apr-22 17:09 120 3 gusting 7 16.7
2017-Apr-22 17:04 098 4 gusting 9 16.7
2017-Apr-22 16:59 122 5 gusting 9 16.7
2017-Apr-22 16:54 103 6 gusting 9 17.2
2017-Apr-22 16:49 105 6 gusting 10 17.2
2017-Apr-22 16:44 109 7 gusting 10 17.2
2017-Apr-22 16:39 084 6 gusting 10 17.2
2017-Apr-22 16:34 108 6 gusting 11 17.8
2017-Apr-22 16:29 090 6 gusting 11 17.8
2017-Apr-22 16:24 104 8 gusting 11 17.8
2017-Apr-22 16:19 113 7 gusting 11 17.8
2017-Apr-22 16:14 097 7 gusting 11 17.8
2017-Apr-22 16:09 116 7 gusting 11 18.3
2017-Apr-22 16:04 140 6 gusting 11 18.3
2017-Apr-22 15:59 109 7 gusting 11 18.3
2017-Apr-22 15:54 099 5 gusting 9 18.3
2017-Apr-22 15:49 140 5 gusting 10 18.3
2017-Apr-22 15:44 111 6 gusting 10 18.3
2017-Apr-22 15:39 148 6 gusting 12 18.3
2017-Apr-22 15:34 136 6 gusting 12 18.3
2017-Apr-22 15:29 130 6 gusting 11 18.9
2017-Apr-22 15:19 113 4 gusting 9 18.3
2017-Apr-22 15:14 097 6 gusting 10 18.3
2017-Apr-22 15:09 119 4 gusting 10 18.3
2017-Apr-22 15:04 134 5 gusting 8 18.3
2017-Apr-22 14:59 113 5 gusting 8 18.9
2017-Apr-22 14:54 090 5 gusting 7 18.9
2017-Apr-22 14:49 101 3 gusting 9 18.3
2017-Apr-22 14:44 132 5 gusting 11 18.3
2017-Apr-22 14:39 141 7 gusting 11 18.3
2017-Apr-22 14:34 142 7 gusting 12 18.3
2017-Apr-22 14:29 113 5 gusting 13 18.3
2017-Apr-22 14:24 087 7 gusting 13 18.3
2017-Apr-22 14:19 105 8 gusting 12 18.3
2017-Apr-22 14:14 115 5 gusting 11 18.9
2017-Apr-22 14:09 094 6 18.9
2017-Apr-22 14:04 086 6 gusting 12 18.9
2017-Apr-22 13:59 117 6 gusting 11 18.9
2017-Apr-22 13:54 091 6 gusting 11 18.9
2017-Apr-22 13:49 094 5 gusting 9 18.9
2017-Apr-22 13:39 094 5 gusting 9 18.9
2017-Apr-22 13:34 119 6 gusting 9 18.9
2017-Apr-22 13:29 098 6 gusting 9 18.9
2017-Apr-22 13:24 128 4 gusting 9 18.9
2017-Apr-22 13:19 098 4 gusting 9 18.9
2017-Apr-22 13:14 121 3 gusting 8 18.9
2017-Apr-22 13:09 104 5 gusting 8 18.9
2017-Apr-22 13:04 059 5 gusting 9 18.9
2017-Apr-22 12:59 101 4 gusting 9 18.9
2017-Apr-22 12:54 113 6 gusting 12 18.9
2017-Apr-22 12:49 047 8 gusting 12 18.9
2017-Apr-22 12:44 036 6 gusting 11 18.3
2017-Apr-22 12:39 053 7 gusting 11 17.8
2017-Apr-22 12:34 071 7 gusting 11 17.8
2017-Apr-22 12:29 067 7 gusting 11 17.8
2017-Apr-22 12:24 087 7 gusting 11 17.8
2017-Apr-22 12:19 088 6 gusting 10 17.8
2017-Apr-22 12:14 056 6 gusting 10 17.8
2017-Apr-22 12:09 046 6 gusting 11 17.8
2017-Apr-22 12:04 055 9 gusting 11 17.2
2017-Apr-22 11:59 076 6 gusting 11 17.2
2017-Apr-22 11:54 069 7 gusting 12 17.2
2017-Apr-22 11:49 049 7 gusting 12 17.2
2017-Apr-22 11:44 071 8 gusting 13 17.2
2017-Apr-22 11:39 079 7 gusting 13 17.2
2017-Apr-22 11:24 050 6 gusting 11 17.2
2017-Apr-22 11:19 060 6 gusting 11 17.2
2017-Apr-22 11:14 049 6 gusting 12 16.7
2017-Apr-22 11:09 031 7 gusting 13 16.7
2017-Apr-22 11:04 061 10 gusting 13 16.7
2017-Apr-22 10:59 057 7 gusting 13 16.7
2017-Apr-22 10:49 082 7 gusting 11 17.2
2017-Apr-22 10:44 027 7 gusting 11 17.2
2017-Apr-22 10:39 045 6 gusting 10 17.8
2017-Apr-22 10:34 042 6 gusting 10 17.8
2017-Apr-22 10:29 063 6 gusting 10 17.8
2017-Apr-22 10:24 011 7 gusting 10 17.8
2017-Apr-22 10:14 065 284 gusting 284 17.8
2017-Apr-22 10:09 036 6 gusting 11 17.2
2017-Apr-22 10:04 038 8 gusting 11 17.8
2017-Apr-22 09:59 041 7 gusting 10 17.8
2017-Apr-22 09:54 032 6 gusting 9 17.8
2017-Apr-22 09:44 055 5 gusting 9 17.8
2017-Apr-22 09:39 028 6 gusting 9 17.8
2017-Apr-22 09:34 062 6 gusting 10 17.2
2017-Apr-22 09:29 040 6 gusting 10 17.2
2017-Apr-22 09:24 050 6 gusting 11 17.2
2017-Apr-22 09:19 037 6 gusting 11 17.2
2017-Apr-22 09:14 063 6 gusting 9 17.2
2017-Apr-22 09:09 049 6 gusting 9 17.8
2017-Apr-22 09:04 029 5 gusting 7 17.8